This is the latest recevied weather packets stored in our database for station/object SQ7IQO. If no packets are shown the sender has not sent any weather packets the latest 10 day(s).
| Time | Temp. | Humidity | Pressure | Rain* | Wind** | Luminosity | Snow |
|---|---|---|---|---|---|---|---|
| 1787400891 | 20° C | - | - | 0 mm | 1.79 m/s, ° | - | - |
| 1787400831 | 20.56° C | - | - | 0 mm | 2.24 m/s, ° | - | - |
| 1787400771 | 20.56° C | - | - | 0 mm | 1.79 m/s, ° | - | - |
| 1787400711 | 20.56° C | - | - | 0 mm | 1.79 m/s, ° | - | - |
| 1787400651 | 20.56° C | - | - | 0 mm | 1.79 m/s, ° | - | - |
| 1787400591 | 20° C | - | - | 0 mm | 1.79 m/s, ° | - | - |
| 1787400531 | 20° C | - | - | 0 mm | 3.13 m/s, ° | - | - |
| 1787400471 | 21.11° C | - | - | 0 mm | 2.68 m/s, ° | - | - |
| 1787400411 | 20.56° C | - | - | 0 mm | 1.34 m/s, ° | - | - |
| 1787400351 | 21.11° C | - | - | 0 mm | 1.79 m/s, ° | - | - |
| 1787400291 | 21.67° C | - | - | 0 mm | 1.79 m/s, ° | - | - |
| 1787400231 | 21.67° C | - | - | 0 mm | 0.89 m/s, ° | - | - |
| 1787400171 | 21.67° C | - | - | 0 mm | 0.89 m/s, ° | - | - |
| 1787400111 | 21.67° C | - | - | 0 mm | 0.89 m/s, ° | - | - |
| 1787400051 | 21.67° C | - | - | 0 mm | 0.89 m/s, ° | - | - |
| 1787399991 | 21.67° C | - | - | 0 mm | 0.89 m/s, ° | - | - |
| 1787399931 | 21.67° C | - | - | 0 mm | 1.34 m/s, ° | - | - |
| 1787399871 | 21.67° C | - | - | 0 mm | 0.89 m/s, ° | - | - |
| 1787399811 | 21.67° C | - | - | 0 mm | 1.79 m/s, ° | - | - |
| 1787399751 | 21.11° C | - | - | 0 mm | 0.89 m/s, ° | - | - |
| 1787399691 | 20.56° C | - | - | 0 mm | 0.89 m/s, ° | - | - |
| 1787399631 | 20° C | - | - | 0 mm | 0.89 m/s, ° | - | - |
| 1787399571 | 20° C | - | - | 0 mm | 0.89 m/s, ° | - | - |
| 1787399511 | 18.89° C | - | - | 0 mm | 0.45 m/s, ° | - | - |
| 1787399451 | 18.89° C | - | - | 0 mm | 0.89 m/s, ° | - | - |
* Rain latest hour (hover to see other rain measurements)
** Current wind speed in m/s (hover to see current wind gust speed)